Simultaneous Nadir Overpasses (SNOs) Predictions

Prediction of SNOs between FY3D and TERRA Satellite Orbit:

Table of predicted SNOs for the next 14.0 days since TLE Epoch: 4/2/2022
Index Date (FY3D) Time (FY3D) Lat,Lon (FY3D) SZA (FY3D ) Date (TERRA) Time (TERRA) Lat,Lon (TERRA) SZA (TERRA ) Distance(km) Time Diff (sec)
1 04/03/2022 15:13:58 71.17, -48.67 65.61 04/03/2022 15:14:46 71.20, -48.67 65.63 3.02 48
2 04/03/2022 16:04:40 -71.06, 118.84 114.52 04/03/2022 16:04:16 -71.08, 118.78 114.51 2.60 24
3 04/06/2022 06:41:04 -71.22,-100.50 115.36 04/06/2022 06:41:45 -71.21,-100.42 115.37 3.18 41
4 04/06/2022 07:31:49 71.10, 67.00 64.52 04/06/2022 07:31:12 71.11, 67.07 64.52 2.56 37
5 04/08/2022 22:08:12 71.17,-152.18 63.60 04/08/2022 22:08:43 71.20,-152.20 63.63 3.40 31
6 04/08/2022 22:58:55 -71.10, 15.26 116.49 04/08/2022 22:58:13 -71.08, 15.25 116.50 1.59 42
7 04/11/2022 13:35:19 -71.21, 156.00 117.34 04/11/2022 13:35:44 -71.18, 156.00 117.37 3.12 25
8 04/11/2022 14:26:03 71.06, -36.43 62.50 04/11/2022 14:25:11 71.07, -36.52 62.52 3.71 52
9 04/14/2022 04:11:56 -71.99, -64.50 117.49 04/14/2022 04:13:03 -71.93, -62.16 117.56 80.77 67
10 04/14/2022 05:02:27 71.18, 104.28 61.68 04/14/2022 05:02:42 71.18, 104.23 61.67 1.76 15
11 04/14/2022 05:53:10 -71.09, -88.26 118.43 04/14/2022 05:52:12 -71.07, -88.30 118.45 3.27 58



Historial Predications of SNOs between FY3D and TERRA
